COSMOS 2251 DEB, 33939

Orbit data source: Space-Track

COSMOS 2251 DEB, 33939 is space debris in LEO originally from a launch on Wed, 16 Jun 1993 UTC launched from the Plesetsk Missile And Space Complex (PKMTR). The debris from Iridium 33, an American commercial communications satellite, has been tracked extensively since its accidental collision with the defunct Russian satellite Cosmos 2251 in 2009. This event, occurring at high speed in low Earth orbit (LEO), generated thousands of pieces of space debris, significantly increasing the risk of further collisions. The Iridium 33 debris cloud has impacted space traffic management and orbital debris mitigation strategies, making it a subject of ongoing study in space situational awareness.

Loading next visibility...
Identifier
33939, 1993-036EU
Orbit
LEO
Country
Flag of CISCIS
Related business
Manufacturer
Unknown
Mission
Spacecraft
Bus & Motor
Unknown
Mass
Unknown
Launch date (UTC)
1993-06-16 (33 years ago)
Launch vehicle
Unknown
Launch site
Plesetsk Missile And Space Complex (PKMTR)
Object type
Payload
Rocket body
Debris
Shape & HBR
Unknown shape, 0.1 m
Radar Cross Section
Small (<0.1 m²)

Expand to show TLE details & history
Last TLE update: 1 day ago

TLE from 1 day ago
0 COSMOS 2251 DEB
1 33939U 93036EU  25353.24660000  .00022468  00000-0  17875-2 0  9996
2 33939  74.0072  67.3766 0004301  31.1681 328.9760 15.00334458888509
Epoch: 2025-12-19T05:55Z
TLE epoch observation values (Epoch: 2025-12-19T05:55:06.240Z)
Latitude
-0.00001°
Longitude
-109.48991°
Altitude
565.992 km
Speed
7.58 km/s
True Right ascension
04h 29m 30s
True Declination
0° 00' 00"
Sunlit
Object was in full shadow at epoch
Visualization orbit readout
Latitude
Unknown
Longitude
Unknown
Altitude
Unknown
Speed
Unknown
Apparent Right ascension
Unknown
Apparent Declination
Unknown
Sunlit
N/A
Visualization observer readout
Local Sidereal Time
04:48:09
Azimuth
Unknown
Elevation
Unknown
Doppler factor
Unknown
Orbital elements
Apogee altitude
566.406 km
Perigee altitude
560.434 km
Semi-major axis
6,941.557 km
Eccentricity
0.00043
Inclination
74.0072°
RAAN
67.3766°
Arg. of periapsis
31.1681°
True anomaly
328.95059°
Mean anomaly
328.976°
Eccentric anomaly
328.96329°
Mean motion
3.75282 °/min
Orbital period
95.93 mins
BSTAR
0.0017875
Loading maneuver chart data...
Computing Atmospheric mass density...

Documentation

Showing up to 5 results
|